Hourly Weather Kleczew

Today, 21 April, Wednesday

Time Temperature Precipitation Wind Pressure Humidity
00:00 +8°C° 0.2 mm 2 mps 750 mmHg 86%
01:00 +7°C° 0 mm 2 mps 750 mmHg 88%
02:00 +7°C° 0 mm 2 mps 750 mmHg 89%
03:00 +6°C° 0 mm 2 mps 749 mmHg 90%
04:00 +6°C° 0 mm 2 mps 749 mmHg 92%
05:00 +7°C° 0 mm 2 mps 749 mmHg 89%
06:00 +8°C° 0 mm 2 mps 749 mmHg 86%
07:00 +9°C° 0 mm 3 mps 750 mmHg 83%
08:00 +11°C° 0.2 mm 3 mps 750 mmHg 76%
09:00 +12°C° 0.2 mm 4 mps 749 mmHg 69%
10:00 +13°C° 0.2 mm 4 mps 749 mmHg 62%
11:00 +14°C° 0.1 mm 5 mps 749 mmHg 56%
12:00 +15°C° 0.1 mm 5 mps 749 mmHg 50%
13:00 +15°C° 0.1 mm 5 mps 749 mmHg 44%
14:00 +15°C° 0 mm 5 mps 749 mmHg 44%
15:00 +15°C° 0 mm 5 mps 749 mmHg 45%
16:00 +15°C° 0 mm 4 mps 748 mmHg 45%
17:00 +14°C° 0 mm 4 mps 748 mmHg 51%
18:00 +12°C° 0 mm 3 mps 748 mmHg 57%
19:00 +11°C° 0 mm 3 mps 748 mmHg 63%
20:00 +10°C° 0 mm 3 mps 749 mmHg 69%
21:00 +8°C° 0 mm 4 mps 749 mmHg 74%
22:00 +7°C° 0 mm 4 mps 749 mmHg 80%
23:00 +7°C° 0 mm 4 mps 750 mmHg 78%

Tomorrow, 22 April, Thursday

Time Temperature Precipitation Wind Pressure Humidity
00:00 +6°C° 0 mm 4 mps 750 mmHg 76%
01:00 +6°C° 0 mm 4 mps 750 mmHg 75%
02:00 +3°C° 0 mm 5 mps 750 mmHg 72%
03:00 +2°C° 0 mm 5 mps 750 mmHg 69%
04:00 +1°C° 0 mm 6 mps 750 mmHg 65%
05:00 +1°C° 0 mm 6 mps 751 mmHg 67%
06:00 0°C° 0 mm 7 mps 751 mmHg 68%
07:00 0°C° 0 mm 8 mps 751 mmHg 69%
08:00 +1°C° 0 mm 8 mps 751 mmHg 65%
09:00 +2°C° 0 mm 8 mps 751 mmHg 61%
10:00 +5°C° 0 mm 8 mps 751 mmHg 58%
11:00 +5°C° 0.1 mm 8 mps 752 mmHg 57%
12:00 +6°C° 0.1 mm 8 mps 752 mmHg 56%
13:00 +6°C° 0.1 mm 8 mps 752 mmHg 55%
14:00 +6°C° 0.3 mm 8 mps 752 mmHg 60%
15:00 +5°C° 0.3 mm 7 mps 752 mmHg 64%
16:00 +5°C° 0.3 mm 7 mps 752 mmHg 69%
17:00 +4°C° 0.2 mm 6 mps 752 mmHg 68%
18:00 +5°C° 0.2 mm 5 mps 752 mmHg 68%
19:00 +4°C° 0.2 mm 4 mps 753 mmHg 68%
20:00 +3°C° 0 mm 4 mps 753 mmHg 68%
21:00 +1°C° 0 mm 5 mps 753 mmHg 68%
22:00 +1°C° 0 mm 5 mps 753 mmHg 68%
23:00 0°C° 0 mm 5 mps 754 mmHg 69%

Day after tomorrow, 23 April, Friday

Time Temperature Precipitation Wind Pressure Humidity
00:00 0°C° 0 mm 5 mps 754 mmHg 71%
01:00 0°C° 0 mm 5 mps 754 mmHg 72%
02:00 -1°C° 0 mm 5 mps 754 mmHg 75%
03:00 -1°C° 0 mm 4 mps 754 mmHg 78%
04:00 -2°C° 0 mm 4 mps 754 mmHg 81%
05:00 -1°C° 0 mm 5 mps 754 mmHg 80%
06:00 0°C° 0 mm 5 mps 754 mmHg 79%
07:00 +1°C° 0 mm 6 mps 754 mmHg 78%
08:00 +1°C° 0.2 mm 6 mps 754 mmHg 82%
09:00 +1°C° 0.2 mm 6 mps 754 mmHg 87%
10:00 +2°C° 0.2 mm 7 mps 754 mmHg 92%
11:00 +2°C° 0.2 mm 7 mps 755 mmHg 85%
12:00 +3°C° 0.2 mm 7 mps 755 mmHg 77%
13:00 +4°C° 0.2 mm 7 mps 755 mmHg 70%
14:00 +4°C° 0.1 mm 7 mps 755 mmHg 63%
15:00 +5°C° 0.1 mm 7 mps 755 mmHg 57%
16:00 +6°C° 0.1 mm 8 mps 756 mmHg 51%
17:00 +4°C° 0.1 mm 7 mps 756 mmHg 60%
18:00 +3°C° 0.1 mm 5 mps 756 mmHg 69%
19:00 +1°C° 0.1 mm 4 mps 756 mmHg 78%
20:00 +1°C° 0 mm 4 mps 757 mmHg 77%
21:00 0°C° 0 mm 4 mps 757 mmHg 76%
22:00 -1°C° 0 mm 4 mps 757 mmHg 75%
23:00 -2°C° 0 mm 4 mps 757 mmHg 76%

24 April, Saturday

Time Temperature Precipitation Wind Pressure Humidity
00:00 -2°C° 0 mm 4 mps 757 mmHg 77%
01:00 -2°C° 0 mm 4 mps 757 mmHg 78%
02:00 -2°C° 0 mm 4 mps 757 mmHg 77%
03:00 -2°C° 0 mm 5 mps 757 mmHg 77%
04:00 -2°C° 0 mm 5 mps 758 mmHg 77%
05:00 -1°C° 0 mm 5 mps 758 mmHg 72%
06:00 0°C° 0 mm 5 mps 758 mmHg 67%
07:00 +1°C° 0 mm 5 mps 758 mmHg 61%
08:00 +3°C° 0 mm 5 mps 758 mmHg 55%
09:00 +5°C° 0 mm 5 mps 758 mmHg 48%
10:00 +7°C° 0 mm 4 mps 758 mmHg 42%
11:00 +7°C° 0 mm 4 mps 757 mmHg 42%
12:00 +8°C° 0 mm 5 mps 757 mmHg 41%
13:00 +8°C° 0 mm 5 mps 757 mmHg 41%
14:00 +8°C° 0.1 mm 5 mps 757 mmHg 45%
15:00 +7°C° 0.1 mm 5 mps 757 mmHg 49%
16:00 +7°C° 0.1 mm 5 mps 757 mmHg 53%
17:00 +6°C° 0.1 mm 5 mps 757 mmHg 58%
18:00 +4°C° 0.1 mm 4 mps 757 mmHg 63%
19:00 +3°C° 0.1 mm 4 mps 758 mmHg 68%
20:00 +2°C° 0 mm 3 mps 758 mmHg 68%
21:00 +1°C° 0 mm 3 mps 759 mmHg 67%
22:00 0°C° 0 mm 3 mps 759 mmHg 67%
23:00 -1°C° 0 mm 3 mps 759 mmHg 69%

25 April, Sunday

Time Temperature Precipitation Wind Pressure Humidity
00:00 -1°C° 0 mm 3 mps 759 mmHg 70%
01:00 -2°C° 0 mm 2 mps 759 mmHg 72%
02:00 -2°C° 0 mm 3 mps 759 mmHg 72%
03:00 -2°C° 0 mm 3 mps 759 mmHg 72%
04:00 -2°C° 0 mm 3 mps 759 mmHg 73%
05:00 -2°C° 0 mm 4 mps 759 mmHg 70%
06:00 0°C° 0 mm 4 mps 759 mmHg 67%
07:00 +1°C° 0 mm 5 mps 759 mmHg 65%
08:00 +3°C° 0 mm 5 mps 759 mmHg 56%
09:00 +4°C° 0 mm 6 mps 759 mmHg 48%
10:00 +6°C° 0 mm 7 mps 758 mmHg 39%
11:00 +6°C° 0 mm 7 mps 758 mmHg 38%
12:00 +7°C° 0 mm 8 mps 758 mmHg 37%
13:00 +7°C° 0 mm 8 mps 757 mmHg 36%
14:00 +7°C° 0 mm 8 mps 757 mmHg 38%
15:00 +7°C° 0 mm 8 mps 757 mmHg 41%
16:00 +8°C° 0 mm 7 mps 758 mmHg 43%
17:00 +5°C° 0 mm 6 mps 758 mmHg 47%
18:00 +3°C° 0 mm 5 mps 758 mmHg 51%
19:00 +2°C° 0 mm 3 mps 758 mmHg 54%
20:00 +2°C° 0 mm 3 mps 758 mmHg 58%
21:00 +1°C° 0 mm 3 mps 758 mmHg 61%
22:00 +1°C° 0 mm 2 mps 758 mmHg 65%
23:00 -1°C° 0 mm 2 mps 758 mmHg 70%

26 April, Monday

Time Temperature Precipitation Wind Pressure Humidity
00:00 -1°C° 0 mm 2 mps 758 mmHg 75%
01:00 -1°C° 0 mm 2 mps 758 mmHg 81%
02:00 -1°C° 0 mm 2 mps 758 mmHg 83%
03:00 -1°C° 0 mm 2 mps 758 mmHg 84%
04:00 -2°C° 0 mm 3 mps 758 mmHg 86%
05:00 0°C° 0 mm 3 mps 758 mmHg 78%
06:00 +2°C° 0 mm 3 mps 758 mmHg 71%
07:00 +3°C° 0 mm 3 mps 758 mmHg 63%
08:00 +5°C° 0 mm 3 mps 758 mmHg 57%
09:00 +7°C° 0 mm 3 mps 758 mmHg 51%
10:00 +9°C° 0 mm 3 mps 757 mmHg 45%
11:00 +10°C° 0 mm 3 mps 757 mmHg 43%
12:00 +10°C° 0 mm 3 mps 757 mmHg 41%
13:00 +12°C° 0 mm 2 mps 756 mmHg 40%
14:00 +12°C° 0 mm 2 mps 756 mmHg 40%
15:00 +12°C° 0 mm 2 mps 756 mmHg 40%
16:00 +12°C° 0 mm 1 mps 755 mmHg 40%
17:00 +11°C° 0 mm 1 mps 755 mmHg 44%
18:00 +9°C° 0 mm 1 mps 755 mmHg 49%
19:00 +8°C° 0 mm 1 mps 754 mmHg 54%
20:00 +6°C° 0 mm 2 mps 754 mmHg 55%
21:00 +5°C° 0 mm 2 mps 754 mmHg 57%
22:00 +3°C° 0 mm 3 mps 754 mmHg 58%
23:00 +3°C° 0 mm 3 mps 753 mmHg 60%
Show more

We Need Your Consent

Meteoprog and our Service Providers may store and access personal data such as cookies, device identifiers or other similar technologies on your device and process such data to personalise content and ads, as well as provide social media features and to analyse the traffic.

  • Store and/or access information on your device

    Cookies, device identifiers or other information can be stored or accessed on your device for the purposes indicated above.

  • Personalised ads and content, ad and content measurement, audience insights, and products development

    Ads and content can be personalised based on a profile. More data can be added to better personalise ads and content. Ad and content performance can be measured. Insights about the audience who saw the ads and content can be derived. Such data can be used to develop or improve user’s experience, systems and software.

By clicking ‘I Agree’ you will allow the use of indicated cookies, device identifiers, web beacons or other similar technologies. Your settings can be changed in the browser on your device.

For certain purposes, legitimate interests may be relied on, rather than consent. You can read more about this in our Privacy and Cookie Policy.